Cloud_Cover
0 0 0 0 0 0 5 23 93 98 60 60 0 0 0 0 1 0 0 0 0 0 0 0 0 0 0 0 0 0 0 0 0 0 0 0 0 0 0 0 0 81 5 0
0 0 0 0 0 4 47 100 3 42 4 5 2 1 0 22 1 0 0 0 0 0 0 0 0 0 0 0 0 0 0 0 0 0 0 0 0 0 0 0 0 0 0 0
0 0 0 0 0 4 5 100 97 50 21 9 26 4 4 91 96 100 76 4 0 0 0 0 0 0 0 0 0 0 0 0 0 0 0 0 0 0 0 9 16 0 0 0
0 0 0 0 0 0 5 8 56 100 33 51 4 0 0 14 24 100 99 1 0 0 0 0 0 0 0 0 0 0 0 0 0 0 0 0 0 0 0 0 0 0 0 0
0 0 0 0 0 0 0 0 1 5 100 53 11 3 0 6 3 28 28 21 98 1 0 0 0 0 0 0 0 0 0 0 0 0 0 0 0 0 0 0 0 0 0 0
0 0 0 0 0 0 0 0 0 0 2 2 3 0 0 0 38 42 11 4 21 0 0 0 0 0 0 0 0 0 0 0 0 0 0 0 0 0 0 0 0 0 0 0
0 0 0 0 0 0 0 0 0 2 0 0 0 0 0 0 6 6 4 0 0 0 0 0 0 0 0 0 0 0 0 0 0 0 0 0 0 0 0 0 0 0 0 0
0 0 0 0 0 0 0 0 0 1 1 3 71 41 0 4 5 2 0 0 0 0 0 0 0 0 0 0 0 0 0 0 0 0 0 0 0 0 0 0 0 0 0 0
0 0 0 0 0 0 0 0 0 2 100 86 85 3 7 2 3 0 0 0 0 0 0 2 0 0 0 0 0 0 0 0 4 0 0 0 0 0 0 0 0 0 0 0
0 0 0 0 0 0 1 1 0 3 25 63 81 91 90 7 5 5 5 0 0 0 0 0 0 0 0 0 0 0 0 4 5 0 0 0 0 0 1 0 0 0 0 0
0 0 0 2 1 0 0 0 0 0 0 43 13 15 100 99 99 51 5 3 0 0 0 0 0 0 0 0 0 0 0 0 0 0 0 0 0 2 34 0 2 0 0 0
0 0 0 29 3 2 0 0 0 5 2 0 5 5 5 5 48 25 0 0 0 0 0 0 0 0 0 0 0 0 0 0 2 0 0 0 0 5 5 5 5 0 0 0
0 0 9 100 95 20 55 0 3 2 0 4 4 44 73 100 5 9 1 4 58 4 5 0 0 0 0 0 0 0 0 0 0 0 0 2 5 37 35 4 5 0 0 0
0 0 5 1 77 14 90 5 5 0 0 0 4 22 6 100 8 29 42 5 6 2 5 4 0 0 0 0 0 0 0 0 0 0 4 5 5 8 32 5 2 0 0 0
0 0 5 5 96 100 98 96 35 26 3 0 1 9 2 20 14 71 88 92 55 41 52 0 0 0 0 0 0 0 0 0 0 0 3 5 2 13 8 0 0 0 0 0
0 0 4 6 96 100 86 97 83 100 37 16 12 5 0 0 100 41 5 47 9 19 5 2 0 0 0 0 0 0 0 2 6 5 5 15 5 50 5 0 3 0 0 0
100 27 5 27 8 91 31 81 100 100 84 1 86 76 0 4 4 0 0 0 0 3 0 0 0 0 0 0 0 0 7 100 62 4 5 93 68 13 5 5 5 5 0 2
100 100 38 24 90 0 0 0 2 41 32 92 99 52 71 10 18 4 4 3 12 1 1 0 0 0 0 0 0 0 9 5 5 6 5 9 66 5 5 4 4 2 5 5
100 100 96 5 11 0 0 0 0 0 2 5 99 96 0 20 100 71 5 2 0 16 67 47 0 0 0 1 2 0 5 5 10 5 8 81 7 5 5 4 82 9 5 6
88 83 100 55 0 0 0 0 4 4 79 96 97 100 95 14 82 5 5 7 30 5 24 86 0 0 0 5 5 5 5 5 5 5 55 14 21 5 55 100 100 34 53 75
59 93 69 36 25 3 98 100 53 27 45 17 72 100 57 56 94 19 12 100 29 6 42 6 10 6 4 6 10 34 34 5 17 6 91 13 46 100 100 100 36 100 52 17
100 100 96 42 58 78 69 88 100 100 41 100 100 82 85 100 99 92 35 87 92 100 84 95 100 18 5 6 18 45 5 14 20 83 45 100 100 100 91 76 100 78 73 15
69 100 100 98 100 75 100 100 39 36 99 83 42 8 3 59 95 100 100 100 86 57 1 0 6 23 5 10 5 93 93 42 100 100 100 100 100 100 100 100 100 100 75 58
9 90 100 100 100 11 18 100 100 100 100 100 99 98 100 100 100 100 5 0 86 49 0 0 0 1 29 9 5 8 77 91 100 100 100 100 100 100 100 100 70 39 10 2
35 71 100 100 83 4 4 4 100 100 89 100 100 100 100 100 98 89 54 3 1 1 5 3 2 5 21 14 5 24 84 60 100 100 100 100 100 100 100 100 64 2 34 18
100 62 10 100 97 19 72 69 97 100 100 100 100 100 100 100 100 47 55 76 2 5 5 7 44 20 18 54 22 93 100 64 63 100 100 100 100 99 39 16 44 97 82 100